Weather History for Palestine, TX

Change the Weather History Date:

Monday, July 22, 2013

  Actual Average (KTYR) Record (KTYR)
Temperature  
Mean Temperature 84 °F 84 °F  
Max Temperature 94 °F 93 °F 105 °F (1963)
Min Temperature 73 °F 74 °F 59 °F (1970)
Degree Days  
Heating Degree Days 0 0  
Month to date heating degree days 0  
Since 1 June heating degree days 0  
Since 1 July heating degree days 0  
Cooling Degree Days 18 18  
Month to date cooling degree days 387  
Year to date cooling degree days 1189  
Since 1 June cooling degree days 820  
Growing Degree Days 34 (Base 50)    
Moisture  
Dew Point 71 °F    
Average Humidity 67    
Maximum Humidity 91    
Minimum Humidity 43    
Precipitation  
Precipitation 0.00 in 0.05 in 2.17 in (1905)
Month to date precipitation 2.14  
Year to date precipitation 25.90  
Snow  
Snow 0.00 in - - ()
Month to date snowfall  
Since 1 June snowfall  
Since 1 July snowfall  
Snow Depth -    
Sea Level Pressure  
Sea Level Pressure 29.98 in    
Wind  
Wind Speed 7 mph (South)    
Max Wind Speed 14 mph    
Max Gust Speed 20 mph    
Visibility 10 miles    
Events      
T = Trace of Precipitation, MM = Missing Value Source: NWS Daily Summary

Daily Weather History Graph

Daily Weather History Graph

Search for Another Location

Airport:

Trip Planner

Search our weather history database for the weather conditions in past years. The results will help you decide how hot, cold, wet, or windy it might be!

Date:

Astronomy

Jul. 22, 2013 Rise Set
Actual Time 6:32 AM CDT 8:25 PM CDT
Civil Twilight 6:05 AM CDT 8:53 PM CDT
Nautical Twilight 5:32 AM CDT 9:25 PM CDT
Astronomical Twilight 4:57 AM CDT 10:00 PM CDT
Moon 8:18 PM CDT (7/22) 6:25 AM CDT (7/22)
Length of Visible Light 14h 47m
Length of Day
13h 53m
Full, 100% of the Moon is Illuminated
Jul 22
Full
Jul 22
Full
Jul 29
Last Quarter
Aug 6
New
Aug 14
First Quarter

Hourly Weather History & Observations

Time (CDT) Temp. Heat Index Dew Point Humidity Pressure Visibility Wind Dir Wind Speed Gust Speed Precip Events Conditions
12:15 AM 77.4 °F - 71.6 °F 82% 29.98 in 10.0 mi South 5.8 mph - N/A   Clear
12:35 AM 77.2 °F - 71.4 °F 82% 29.98 in 10.0 mi SSE 5.8 mph - N/A   Clear
12:55 AM 77.2 °F - 71.6 °F 83% 29.99 in 10.0 mi South 8.1 mph - N/A   Clear
1:15 AM 77.0 °F - 71.6 °F 83% 29.99 in 10.0 mi South 9.2 mph - N/A   Clear
1:35 AM 76.3 °F - 71.4 °F 85% 29.99 in 10.0 mi SSE 8.1 mph - N/A   Clear
1:55 AM 75.9 °F - 71.2 °F 85% 29.99 in 10.0 mi South 6.9 mph - N/A   Clear
2:15 AM 75.4 °F - 71.1 °F 86% 29.98 in 10.0 mi South 6.9 mph - N/A   Scattered Clouds
2:35 AM 75.2 °F - 71.1 °F 87% 29.98 in 10.0 mi South 5.8 mph - N/A   Scattered Clouds
2:55 AM 75.4 °F - 71.4 °F 87% 29.98 in 10.0 mi South 5.8 mph - N/A   Mostly Cloudy
3:15 AM 75.4 °F - 71.6 °F 88% 29.98 in 10.0 mi South 6.9 mph - N/A   Overcast
3:35 AM 75.4 °F - 71.6 °F 88% 29.98 in 10.0 mi South 9.2 mph - N/A   Overcast
3:55 AM 75.4 °F - 71.4 °F 87% 29.98 in 10.0 mi South 6.9 mph - N/A   Overcast
4:15 AM 75.2 °F - 71.4 °F 88% 29.98 in 10.0 mi South 5.8 mph - N/A   Overcast
4:35 AM 74.8 °F - 71.2 °F 88% 29.99 in 10.0 mi South 3.5 mph - N/A   Overcast
4:55 AM 74.8 °F - 71.2 °F 88% 29.99 in 10.0 mi SSE 4.6 mph - N/A   Overcast
5:15 AM 74.5 °F - 70.9 °F 88% 29.99 in 10.0 mi South 5.8 mph - N/A   Scattered Clouds
5:35 AM 74.3 °F - 70.9 °F 89% 29.99 in 10.0 mi South 5.8 mph - N/A   Scattered Clouds
5:55 AM 74.1 °F - 70.7 °F 89% 30.00 in 10.0 mi South 3.5 mph - N/A   Mostly Cloudy
6:15 AM 73.9 °F - 70.7 °F 90% 30.00 in 10.0 mi SSE 3.5 mph - N/A   Mostly Cloudy
6:35 AM 73.9 °F - 70.9 °F 90% 30.00 in 10.0 mi Calm Calm - N/A   Overcast
6:55 AM 73.8 °F - 70.9 °F 91% 30.00 in 7.0 mi South 4.6 mph - N/A   Mostly Cloudy
7:15 AM 73.8 °F - 71.1 °F 91% 30.00 in 7.0 mi South 3.5 mph - N/A   Scattered Clouds
7:35 AM 74.1 °F - 71.2 °F 91% 30.01 in 7.0 mi South 4.6 mph - N/A   Scattered Clouds
7:55 AM 74.8 °F - 71.6 °F 90% 30.01 in 10.0 mi South 4.6 mph - N/A   Scattered Clouds
8:35 AM 77.0 °F - 71.8 °F 84% 30.02 in 10.0 mi South 8.1 mph - N/A   Scattered Clouds
8:55 AM 78.1 °F - 71.8 °F 81% 30.03 in 10.0 mi South 12.7 mph 16.1 mph N/A   Mostly Cloudy
9:55 AM 80.8 °F 84.9 °F 71.8 °F 74% 30.03 in 10.0 mi SSW 9.2 mph - N/A   Mostly Cloudy
10:15 AM 81.9 °F 86.4 °F 71.8 °F 71% 30.04 in 10.0 mi SSW 10.4 mph 16.1 mph N/A   Scattered Clouds
10:35 AM 84.0 °F 89.3 °F 71.6 °F 66% 30.04 in 10.0 mi SSW 10.4 mph 17.3 mph N/A   Scattered Clouds
10:55 AM 85.1 °F 90.4 °F 71.2 °F 63% 30.04 in 10.0 mi South 13.8 mph 19.6 mph N/A   Scattered Clouds
11:15 AM 86.2 °F 91.8 °F 71.4 °F 61% 30.03 in 10.0 mi SSW 11.5 mph 17.3 mph N/A   Scattered Clouds
11:35 AM 87.6 °F 93.5 °F 71.4 °F 58% 30.04 in 10.0 mi SSW 10.4 mph 17.3 mph N/A   Clear
11:55 AM 88.0 °F 93.8 °F 71.1 °F 57% 30.04 in 10.0 mi SSW 13.8 mph 17.3 mph N/A   Scattered Clouds
12:15 PM 89.1 °F 94.6 °F 70.7 °F 54% 30.03 in 10.0 mi SSW 10.4 mph 16.1 mph N/A   Scattered Clouds
12:35 PM 87.6 °F 93.9 °F 71.6 °F 59% 30.03 in 10.0 mi SW 8.1 mph - N/A   Mostly Cloudy
12:55 PM 89.1 °F 94.1 °F 70.0 °F 53% 30.02 in 10.0 mi SSW 13.8 mph 18.4 mph N/A   Mostly Cloudy
1:15 PM 90.7 °F 96.4 °F 70.3 °F 51% 30.02 in 10.0 mi South 10.4 mph 18.4 mph N/A   Mostly Cloudy
1:35 PM 91.6 °F 97.7 °F 70.3 °F 50% 30.01 in 10.0 mi South 10.4 mph 18.4 mph N/A   Scattered Clouds
1:55 PM 90.1 °F 96.3 °F 70.9 °F 53% 30.01 in 10.0 mi South 6.9 mph - N/A   Scattered Clouds
2:15 PM 90.9 °F 96.7 °F 70.7 °F 51% 30.00 in 10.0 mi SSW 11.5 mph 16.1 mph N/A   Mostly Cloudy
2:35 PM 93.7 °F 99.3 °F 69.3 °F 45% 30.00 in 10.0 mi SW 12.7 mph 17.3 mph N/A   Scattered Clouds
2:55 PM 93.4 °F 98.6 °F 69.1 °F 45% 29.99 in 10.0 mi SW 8.1 mph 17.3 mph N/A   Scattered Clouds
3:15 PM 93.9 °F 99.1 °F 69.1 °F 44% 29.98 in 10.0 mi SW 10.4 mph 16.1 mph N/A   Scattered Clouds
3:35 PM 94.3 °F 100.4 °F 70.0 °F 45% 29.98 in 10.0 mi SSE 9.2 mph 17.3 mph N/A   Scattered Clouds
3:55 PM 93.9 °F 99.7 °F 69.6 °F 45% 29.97 in 10.0 mi SSE 6.9 mph - N/A   Scattered Clouds
4:15 PM 93.9 °F 99.7 °F 69.4 °F 45% 29.96 in 10.0 mi South 8.1 mph - N/A   Scattered Clouds
4:35 PM 93.4 °F 98.6 °F 69.4 °F 45% 29.96 in 10.0 mi South 8.1 mph - N/A   Scattered Clouds
4:55 PM 93.2 °F 99.4 °F 70.3 °F 47% 29.95 in 10.0 mi South 8.1 mph - N/A   Mostly Cloudy
5:15 PM 94.5 °F 99.6 °F 68.9 °F 43% 29.95 in 10.0 mi South 9.2 mph - N/A   Scattered Clouds
5:35 PM 94.3 °F 99.8 °F 69.3 °F 44% 29.95 in 10.0 mi South 10.4 mph - N/A   Scattered Clouds
5:55 PM 93.6 °F 99.0 °F 69.3 °F 45% 29.94 in 10.0 mi South 10.4 mph - N/A   Scattered Clouds
6:15 PM 94.1 °F 100.0 °F 69.8 °F 45% 29.94 in 10.0 mi South 8.1 mph - N/A   Clear
6:35 PM 92.5 °F 97.9 °F 69.6 °F 47% 29.94 in 10.0 mi South 6.9 mph - N/A   Scattered Clouds
6:55 PM 93.2 °F 98.3 °F 69.1 °F 45% 29.93 in 10.0 mi SSW 9.2 mph - N/A   Clear
7:15 PM 92.8 °F 98.6 °F 69.8 °F 47% 29.93 in 10.0 mi South 4.6 mph - N/A   Clear
7:35 PM 91.8 °F 97.0 °F 69.8 °F 48% 29.93 in 10.0 mi SSE 5.8 mph - N/A   Scattered Clouds
7:55 PM 90.7 °F 95.9 °F 70.0 °F 50% 29.93 in 10.0 mi SSE 4.6 mph - N/A   Clear
8:15 PM 89.6 °F 95.2 °F 70.2 °F 53% 29.93 in 10.0 mi South 3.5 mph - N/A   Clear
8:35 PM 88.5 °F 94.0 °F 70.3 °F 55% 29.93 in 10.0 mi SE 4.6 mph - N/A   Clear
8:55 PM 87.6 °F 93.1 °F 70.7 °F 57% 29.94 in 10.0 mi SE 4.6 mph - N/A   Clear
9:15 PM 86.9 °F 92.5 °F 71.1 °F 59% 29.94 in 10.0 mi SE 4.6 mph - N/A   Clear
9:35 PM 86.5 °F 92.5 °F 71.6 °F 61% 29.95 in 10.0 mi SE 6.9 mph - N/A   Clear
9:55 PM 86.0 °F 91.8 °F 71.6 °F 62% 29.96 in 10.0 mi SE 5.8 mph - N/A   Clear
10:15 PM 85.5 °F 91.8 °F 72.5 °F 65% 29.97 in 10.0 mi SE 6.9 mph - N/A   Clear
10:35 PM 84.6 °F 91.4 °F 73.6 °F 69% 29.98 in 10.0 mi SE 8.1 mph - N/A   Clear
10:55 PM 83.8 °F 91.1 °F 74.3 °F 73% 29.98 in 10.0 mi SSE 6.9 mph - N/A   Clear
11:15 PM 83.7 °F 90.7 °F 74.3 °F 73% 29.98 in 10.0 mi South 6.9 mph - N/A   Clear
11:35 PM 83.3 °F 89.6 °F 73.6 °F 72% 29.98 in 10.0 mi SSE 10.4 mph - N/A   Clear
11:55 PM 83.3 °F 89.3 °F 72.9 °F 71% 29.99 in 10.0 mi South 10.4 mph 17.3 mph N/A   Clear